This demonstration page uses our WeatherBlox Daily Observations layout. Learn more.

Left ArrowRight Arrow

41.12389, -100.76542

Hourly Observations for September 26, 2016

Temp ( °F °C ) Dew Point ( °F °C ) Humidity (%) Winds ( mph kmh ) Pressure ( in mb ) Visibility ( mi km ) Precip ( " mm )
12:53 am 00:53 Clear 39 3.9 31 -0.6 73 73 W 6 9 30.34 1028 10 16 0.00 0.00
1:53 am 01:53 Clear 39 3.9 32 0 76 76 WNW 3 6 30.34 1027 10 16 0.00 0.00
2:53 am 02:53 Clear 37 2.8 32 0 82 82 NW 5 7 30.36 1028 10 16 0.00 0.00
3:53 am 03:53 Clear 37 2.8 31 -0.6 79 79 NW 6 9 30.35 1028 10 16 0.00 0.00
4:53 am 04:53 Clear 36 2.2 30 -1.1 79 79 WNW 3 6 30.34 1028 10 16 0.00 0.00
5:53 am 05:53 Clear 37 2.8 30 -1.1 76 76 WNW 3 6 30.34 1027 10 16 0.00 0.00
6:53 am 06:53 Clear 36 2.2 31 -0.6 82 82 NW 3 6 30.35 1028 10 16 0.00 0.00
7:53 am 07:53 Sunny 36 2.2 30 -1.1 79 79 Calm 30.37 1028 10 16 0.00 0.00
8:53 am 08:53 Sunny 46 7.8 36 2.2 68 68 WNW 3 6 30.36 1028 10 16 0.00 0.00
9:39 am 09:39 Hazy 50 10 37 3 62 62 W 8 13 30.33 1027 2 2 0.00 0.00
9:53 am 09:53 Sunny 52 11.1 38 3.3 59 59 WNW 9 15 30.34 1028 10 16 0.00 0.00
10:53 am 10:53 Sunny 62 16.7 39 3.9 43 43 NW 8 13 30.31 1027 10 16 0.00 0.00
11:53 am 11:53 Sunny 70 21.1 39 3.9 32 32 WNW 14 22 30.28 1025 10 16 0.00 0.00
12:53 pm 12:53 Sunny 73 22.8 38 3.3 28 28 W 14 22 30.25 1025 10 16 0.00 0.00
1:53 pm 13:53 Sunny 77 25 39 3.9 26 26 NW 15 24 30.22 1023 10 16 0.00 0.00
2:53 pm 14:53 Sunny 77 25 40 4.4 26 26 NW 13 20 30.19 1023 10 16 0.00 0.00
3:53 pm 15:53 Sunny 78 25.6 41 5 27 27 NW 15 24 30.17 1022 10 16 0.00 0.00
4:53 pm 16:53 Sunny 77 25 41 5 28 28 NW 14 22 30.16 1022 10 16 0.00 0.00
5:53 pm 17:53 Sunny 76 24.4 40 4.4 27 27 NW 8 13 30.15 1021 10 16 0.00 0.00
6:53 pm 18:53 Sunny 72 22.2 42 5.6 34 34 NNW 8 13 30.15 1021 10 16 0.00 0.00
7:53 pm 19:53 Clear 61 16.1 44 6.7 54 54 WNW 3 6 30.17 1022 10 16 0.00 0.00
8:53 pm 20:53 Clear 56 13.3 46 7.8 70 70 Calm 30.18 1022 10 16 0.00 0.00
9:53 pm 21:53 Clear 52 11.1 42 5.6 69 69 Calm 30.18 1022 10 16 0.00 0.00
10:53 pm 22:53 Clear 49 9.4 41 5 74 74 Calm 30.17 1022 10 16 0.00 0.00
11:53 pm 23:53 Clear 45 7.2 41 5 86 86 NNW 3 6 30.16 1022 10 16 0.00 0.00

Powered by AerisWeather